C/2009 K2 (Catalina)
Epoch 2010 Feb. 13.0 TT = JDT 2455240.5  
T 2010 Feb. 7.52005 TT                                  Nakano
q   3.2461648            (2000.0)            P               Q
z  +0.0006509      Peri.  147.70118     +0.29553328     +0.57374231
 +/-0.0000049      Node   123.80560     -0.94715343     +0.07156484
e   0.9978870      Incl.   66.82124     +0.12474157     -0.81590333
From 587 observations 2009 May 18-Nov. 6, mean residual 0".57.
   (1/a)org.= +0.000964, (1/a)fut.= +0.001163 (+/-0.000005), Q= 6.
   The comet will pass 3.63 AU from Jupiter on 2010 June 23 UT.
Residuals in seconds of arc 
2009/                     090614 B11  0.2+  0.4-    090728 B42  0.0   0.0   
090518 703  0.7+  0.7+    090615 160  0.5-  1.8-    090728 B42  0.5-  0.4+  
090518 703  0.2-  1.0-    090615 160  0.2+  0.2-    090730 H10  0.0   0.2+  
090518 703  0.7-  0.8-    090615 160  0.3-  0.6+    090730 H10  0.3+  0.2-  
090518 703  0.5-  1.1-    090615 160  0.1+  0.1+    090730 H10  0.1+  0.1+  
090518 H01  0.7+  0.9+    090615 160  0.2+  0.3-    090730 900  0.5+  0.1-  
090518 H01  0.7+  1.0+    090617 H45  0.7+  0.7-    090730 900  0.1+  0.1+  
090518 H01  0.7+  0.9+    090617 H45  0.3+  0.8-    090801 850  0.5+  0.2+  
090518 673  0.6+  0.7+    090617 H45  0.7+  0.1-    090801 850  0.4+  0.1+  
090518 H01  0.6+  0.9+    090617 H45  0.8+  0.2+    090801 H10  1.8+  0.8-  
090518 H01  0.6+  0.7+    090617 H45  0.2+  0.6-    090801 H10  1.8+  1.0-  
090518 673  0.6+  0.5+    090617 H45  0.5+  0.5-    090801 703  0.8+  0.3+  
090518 673  0.5+  0.4+    090617 561  0.1+  0.2-    090801 703  1.8+  0.3+  
090518 673  0.6+  0.3+    090617 561  0.0   0.4+    090801 703  1.3+  0.9+  
090518 673  0.5+  0.3+    090617 561  0.3+  0.1-    090801 703  0.0   0.6+  
090518 595  0.2+  0.9-    090617 B42  0.7-  0.1+    090801 160  0.2-  0.2+  
090518 595  0.1-  0.3-    090617 B42  0.8-  0.3-    090801 160  0.3-  0.1+  
090518 595  0.0   0.2-    090619 850  0.9-  1.2-    090801 160  0.8-  0.9-  
090518 A13  0.0   0.0     090619 850  0.0   0.1-    090802 900  0.1-  0.3+  
090518 A74  0.4-  0.4-    090619 850  0.6-  0.1+    090802 900  1.0+  0.3-  
090518 A74  0.2-  0.3+    090619 H45  0.6+  0.9+    090803 H10  0.9+  0.1-  
090518 A13  0.5+  0.2+    090619 H45  0.0   0.3-    090803 H10  0.2+  0.7-  
090518 J95  0.4+  0.6+    090619 H45  0.3+  0.2-    090803 H10  0.7+  0.1-  
090518 A74  0.4-  0.0     090619 H45  0.3+  0.5-    090803 213  0.4+  0.3+  
090518 J95  0.1+  0.7-    090619 H45  0.4+  0.2+    090803 213  0.3+  0.2+  
090519 H06  0.2+  0.1+    090619 H45  0.3+  0.3+    090803 213  0.2-  0.1-  
090519 H06  0.1-  0.0     090619 H45  0.4+  0.1+    090804 850  0.6+  0.2+  
090519 H06  0.1-  0.1+    090620 J24  0.2+  1.0-    090804 850  0.6+  0.2+  
090519 H55  0.4+  0.3+    090620 J24  0.5+  1.1-    090804 850  1.1-  0.4+  
090519 H55  0.2+  0.0     090620 J24  0.3-  1.2-    090804 B18  0.1-  0.0   
090519 H55  0.0   0.0     090621 H45  0.4+  0.6-    090804 B18  0.3-  0.1-  
090519 H55  0.1+  0.2+    090621 H45  0.3+  0.4-    090804 B18  0.1-  0.1-  
090519 H36  1.2+  0.2+    090621 H45  0.7+  0.2-    090804 B18  0.1-  0.3+  
090519 H36  0.4-  0.0     090621 H45  0.2+  0.3-    090804 B18  0.0   0.1-  
090519 673  0.8+  0.6+    090621 H45  0.5+  0.3-    090804 B18  0.3-  0.2+  
090519 673  0.8+  0.6+    090621 H45  0.6+  0.2+    090804 B18  0.3-  0.1-  
090519 673  0.9+  0.7+    090621 H45  0.1-  0.7-    090805 H45  1.1-  0.7+  
090519 673  1.0+  0.8+    090622 850  0.2-  0.4-    090805 H45  1.3-  0.7-  
090519 213  0.3+  0.1+    090622 850  1.9-  1.1-    090805 H45  1.2-  1.8-  
090519 213  0.2+  0.3-    090622 850  0.4-  0.1+    090805 H45  0.4-  1.4-  
090519 213  0.1+  0.1+    090622 850  1.3-  0.4-    090805 H45  1.1-  0.9+  
090519 B40  0.6+  0.9+    090622 585  0.7-  0.1-    090805 118  0.6-  0.2+  
090519 B40  0.2-  0.8+    090622 585  0.1-  0.4-    090805 118  0.2-  0.1+  
090519 204  0.0   0.4+    090622 585  0.9-  0.2-    090806 160  0.3-  0.2+  
090519 B40  1.0+  0.4+    090623 H45  0.2+  0.1+    090806 160  0.2-  0.6-  
090519 215  0.8+  0.8-    090623 H45  0.1+  0.8-    090806 160  0.0   0.4+  
090519 215 (0.2-  2.9-)   090623 H45  0.2+  0.1-    090811 850  1.0-  0.5+  
090519 215  0.1-  1.4-    090623 H45  0.6+  0.2+    090811 850  0.1+  0.6+  
090519 B40  0.4+  0.0     090623 H45  0.4+  0.1-    090811 H10  0.6-  0.4+  
090520 204  0.2+  0.5+    090623 H45  0.1+  0.1-    090811 160  0.1+  0.1+  
090520 160  0.2+  0.2+    090623 H45  0.2+  0.4-    090811 160  0.0   0.1+  
090520 160  0.2-  0.3+    090624 850  0.5-  0.9-    090811 160  0.1-  0.1+  
090520 160  0.4-  0.2+    090624 850  0.9-  1.1-    090812 H10  0.1+  0.0   
090521 J47  0.1-  0.2-    090625 850  0.5-  0.5-    090812 H10  0.0   0.1+  
090521 J47  0.0   0.1-    090625 850  0.5-  0.1+    090812 H10  0.1-  0.5-  
090521 J47  0.4+  0.2+    090626 H45  0.1-  0.1-    090812 212  0.3+  0.0   
090521 H45  0.5+  0.1+    090626 H45  0.2+  0.1-    090813 160  0.4-  0.0   
090521 H45  0.2+  0.1-    090626 H45  0.6+  0.2+    090813 160  0.5-  0.1+  
090521 H45  0.1-  0.2-    090626 H45  0.0   0.3-    090813 160  0.3-  0.2-  
090521 H45  0.8+  0.3-    090626 H45  0.2-  0.1+    090814 850  0.3+  0.4+  
090521 H45  0.1+  0.2-    090626 H45  0.3+  0.3+    090814 850  0.2+  0.5+  
090521 H45  0.8+  0.5-    090626 H45  0.1+  0.4-    090814 A71  0.4+  0.4+  
090521 H45  0.5+  0.4-    090626 850  1.2-  0.2-    090814 A71  0.1+  0.2-  
090521 H45  0.3+  0.4-    090626 850  0.6-  0.3-    090814 A71  0.2+  0.1+  
090521 585  0.3+  0.8+    090626 900  0.5-  0.8-    090815 850  1.8+  1.8+  
090521 585  0.2+  0.5+    090626 900  0.1-  0.4+    090815 850  0.5+  0.9+  
090521 585  0.0   0.4+    090627 703  1.1-  0.7-    090815 850  0.3+  0.6+  
090521 585  0.7+  0.4+    090627 703  0.9-  1.2-    090815 H45  0.2-  0.0   
090521 585  0.0   0.4+    090627 703  0.7-  1.6-    090815 H45  0.0   0.5+  
090521 585  0.7-  0.5+    090627 703  0.5-  0.4-    090815 H45  0.1+  0.2+  
090521 585  0.5+  0.7+    090628 900  0.8-  0.7+    090815 H45  0.0   0.2-  
090521 585  0.5+  0.2+    090628 900  1.5-  0.6+    090815 H45  0.1-  0.0   
090521 585  0.6+  0.4+    090628 585  0.8-  0.4-    090815 H45  0.0   0.1-  
090521 585  0.1-  0.3+    090628 585  1.0-  0.8-    090815 J53  0.3-  0.7-  
090521 585  0.0   0.5+    090629 H45  0.1-  0.3-    090815 J53  0.1+  1.1-  
090522 H45  0.6-  0.1-    090629 H45  0.5-  0.6-    090815 J53  0.6+  0.8-  
090522 H45  0.4-  0.0     090629 H45  0.2-  0.8-    090817 900  1.0+  0.6+  
090522 H45  0.1-  0.0     090629 H45  0.1-  1.0-    090817 900  1.0+  0.8+  
090522 H45  0.0   0.0     090629 H45  0.1+  0.8-    090818 212  0.0   0.5+  
090522 H45  0.2-  0.3+    090629 H45  0.9-  0.3-    090819 215  0.1+  0.1-  
090522 H45  0.5+  0.6+    090630 850  0.5-  0.2+    090819 215  0.0   0.8-  
090522 H45  0.0   0.4+    090630 H45  0.0   0.0     090819 215  0.3-  0.6-  
090522 H45  1.1+  0.4+    090630 H45  0.5-  0.1-    090820 212  0.0   0.3+  
090522 H45  1.1+  0.3+    090630 H45  0.3-  0.1+    090820 561  0.3-  0.6-  
090522 B96 (0.8+  2.3-)   090630 H45  0.3-  0.1-    090820 212  0.4-  0.4-  
090522 B96  0.2+  0.7-    090630 850  1.5+  0.0     090820 561  0.4+  0.4-  
090522 B96  1.0+  1.5+    090630 H45  0.2-  0.5-    090820 212  0.9-  0.3+  
090522 B96  0.9+  0.5-    090630 H45  0.5-  0.6-    090820 561  0.5+  0.6-  
090522 204  0.1-  0.1+    090630 H45  0.2-  0.0     090820 204  0.0   0.3+  
090523 213  0.3-  0.6-    090630 585  0.1+  0.2+    090820 204  0.1-  0.2+  
090523 213  0.2-  0.6-    090630 585  0.4-  0.5+    090822 H06  0.0   0.8+  
090523 J47  0.4-  0.5-    090630 585  0.2-  0.6+    090822 H06  0.3-  0.7+  
090523 J47  0.6-  0.1-    090630 585  0.3-  0.7+    090822 H06  0.0   0.5+  
090523 J47  0.7-  0.2-    090630 585  0.1-  0.7+    090823 H45  0.9-  0.7+  
090524 673  0.0   0.2+    090630 585  0.0   0.1+    090823 H45  0.5-  0.3+  
090524 673  0.5+  0.4+    090630 585  0.0   0.5+    090823 H45  0.6-  0.6+  
090524 673  0.6+  0.3+    090630 585  0.3+  0.5+    090823 H45  0.1-  0.4+  
090524 673  0.6+  0.4+    090701 H45  0.2-  0.1+    090823 H45  0.9-  0.5+  
090524 A71  0.5-  0.2-    090701 H45  0.3-  0.8-    090823 H45  0.6-  0.3+  
090524 A71  1.2-  0.2-    090701 H45  0.0   0.0     090823 900  0.2-  0.0   
090524 A71  0.8-  0.2-    090701 H45  0.1+  0.5+    090823 900  0.3+  0.2+  
090525 372  0.9-  0.8-    090701 H45  0.3-  0.9-    090823 D92  0.1+  0.5+  
090525 A79  0.3-  0.3-    090701 H45  0.2+  0.9-    090823 D92  0.0   0.8+  
090525 A79  0.2-  0.3+    090701 H45  0.0   0.1+    090824 213  0.3-  0.3+  
090525 A79  0.5-  0.3-    090701 160  0.1-  0.2-    090824 213  0.4-  0.2+  
090526 118  0.3-  0.3-    090701 160  0.5-  0.2+    090824 561  0.5+  0.2-  
090526 118  0.5+  0.6+    090701 160  0.6-  0.8+    090824 561  0.4+  0.6-  
090526 118  0.1+  0.1+    090702 850  0.3-  0.6-    090824 561  1.2+  0.7-  
090526 B40  0.2+  1.2+    090702 850  0.3-  0.1-    090827 H45  0.7+  0.5+  
090526 B40  0.2+  0.8+    090702 850  0.7-  0.4-    090827 H45  0.6+  0.4+  
090526 B40  0.6-  0.4-    090703 850  0.4+  0.2-    090827 H45  0.6+  0.7+  
090527 H10  0.1+  0.2-    090703 850  0.3-  0.7-    090827 H45  0.7+  0.5+  
090527 H10  0.4-  0.3-    090707 473  0.3-  0.6-    090827 H45  0.4+  0.3+  
090527 H10  0.0   0.0     090707 473  0.2-  0.7-    090827 H45  0.3+  0.5+  
090527 A77  0.2-  0.4+    090709 585  0.1-  0.6+    090831 160  0.2+  0.2+  
090527 A77  0.4-  0.2+    090709 585  0.0   0.7+    090831 160  0.1+  0.1+  
090527 A77  1.3-  1.7-    090709 585  1.5-  0.3+    090831 160  0.1-  0.3+  
090527 213  0.2+  0.4+    090710 850  0.3-  0.6-    090831 B42  0.3-  0.5+  
090527 213  0.0   0.5+    090710 850  1.1+  1.0-    090831 B42  0.4-  0.7-  
090527 213  0.0   0.3+    090710 850  0.7-  0.7-    090831 118  0.4+  0.5+  
090528 H45  0.0   0.3-    090711 A77  0.1+  0.6-    090831 B42  0.4+  0.8+  
